GOES 16

Last updated on Sun Apr 12 2026 00:02:26 GMT+0000 (Coordinated Universal Time)

1 41866U 16071A 26101.49997729 -.00000089 00000+0 00000+0 0 9992 2 41866 0.1748 85.0259 0001643 250.2191 299.7745 1.00271810 34437
UTC large
Height (km)
Speed (km/s)
/
Latitude / Longitude
Inclination (degrees)
Orbital Period (minutes)
Azimuth
Elevation
Range (km)
Doppler Factor

Next 0 passes for location: London (51.5072 / 0.1276)

Sorry there are no passes over London.